• în România
  • Lista ţărilor
  • Pe 7 zile
  • Temperatura apei
  • Hartă satelitară
  • Meteo pe hartă
  • Widget-uri
  • user-avatar
    Intrare

    Meteo pe oră la Dumfries

    Astăzi, 17 August, Vineri

    Timp Temperatura Precipitaţii Vânt Presiune Umiditate
    00:00 +11°C° 0 mm 4 m/s 754 mmHg 93%
    01:00 +11°C° 0,1 mm 4 m/s 754 mmHg 92%
    02:00 +10°C° 0,1 mm 5 m/s 754 mmHg 92%
    03:00 +12°C° 0,1 mm 5 m/s 755 mmHg 91%
    04:00 +12°C° 0,1 mm 4 m/s 755 mmHg 91%
    05:00 +12°C° 0,1 mm 4 m/s 755 mmHg 91%
    06:00 +12°C° 0,1 mm 4 m/s 755 mmHg 91%
    07:00 +12°C° 0,1 mm 4 m/s 755 mmHg 90%
    08:00 +12°C° 0,1 mm 5 m/s 755 mmHg 89%
    09:00 +13°C° 0,1 mm 5 m/s 755 mmHg 87%
    10:00 +13°C° 0,2 mm 6 m/s 755 mmHg 88%
    11:00 +13°C° 0,2 mm 6 m/s 755 mmHg 88%
    12:00 +13°C° 0,2 mm 6 m/s 754 mmHg 88%
    13:00 +14°C° 0,5 mm 6 m/s 754 mmHg 90%
    14:00 +14°C° 0,5 mm 6 m/s 754 mmHg 91%
    15:00 +14°C° 0,5 mm 7 m/s 754 mmHg 92%
    16:00 +14°C° 0,2 mm 6 m/s 754 mmHg 93%
    17:00 +15°C° 0,2 mm 6 m/s 754 mmHg 93%
    18:00 +15°C° 0,2 mm 6 m/s 753 mmHg 93%
    19:00 +15°C° 0,1 mm 6 m/s 754 mmHg 93%
    20:00 +14°C° 0,1 mm 6 m/s 754 mmHg 93%
    21:00 +14°C° 0,1 mm 6 m/s 754 mmHg 93%
    22:00 +14°C° 0,1 mm 6 m/s 754 mmHg 93%
    23:00 +14°C° 0,1 mm 6 m/s 754 mmHg 93%

    Mâine, 18 August, Sâmbătă

    Timp Temperatura Precipitaţii Vânt Presiune Umiditate
    00:00 +14°C° 0,1 mm 6 m/s 754 mmHg 93%
    01:00 +14°C° 0,1 mm 6 m/s 754 mmHg 93%
    02:00 +14°C° 0,1 mm 6 m/s 754 mmHg 93%
    03:00 +14°C° 0,1 mm 6 m/s 754 mmHg 94%
    04:00 +14°C° 0,2 mm 6 m/s 754 mmHg 94%
    05:00 +14°C° 0,2 mm 6 m/s 754 mmHg 94%
    06:00 +14°C° 0,2 mm 6 m/s 754 mmHg 94%
    07:00 +14°C° 0,1 mm 6 m/s 754 mmHg 93%
    08:00 +15°C° 0,1 mm 6 m/s 755 mmHg 92%
    09:00 +15°C° 0,1 mm 6 m/s 755 mmHg 91%
    10:00 +15°C° 0,2 mm 6 m/s 755 mmHg 90%
    11:00 +15°C° 0,2 mm 5 m/s 756 mmHg 89%
    12:00 +15°C° 0,2 mm 5 m/s 756 mmHg 88%
    13:00 +15°C° 0,1 mm 5 m/s 756 mmHg 88%
    14:00 +15°C° 0,1 mm 5 m/s 757 mmHg 88%
    15:00 +15°C° 0,1 mm 5 m/s 757 mmHg 87%
    16:00 +15°C° 0,1 mm 4 m/s 757 mmHg 88%
    17:00 +14°C° 0,1 mm 4 m/s 757 mmHg 89%
    18:00 +14°C° 0,1 mm 3 m/s 758 mmHg 89%
    19:00 +13°C° 0 mm 3 m/s 758 mmHg 91%
    20:00 +14°C° 0 mm 2 m/s 758 mmHg 93%
    21:00 +13°C° 0 mm 2 m/s 759 mmHg 95%
    22:00 +13°C° 0,4 mm 1 m/s 759 mmHg 95%
    23:00 +13°C° 0,4 mm 1 m/s 759 mmHg 95%

    Poimâine, 19 August, Duminică

    Timp Temperatura Precipitaţii Vânt Presiune Umiditate
    00:00 +13°C° 0,4 mm 1 m/s 758 mmHg 95%
    01:00 +13°C° 1,2 mm 1 m/s 758 mmHg 95%
    02:00 +13°C° 1,2 mm 1 m/s 758 mmHg 94%
    03:00 +13°C° 1,2 mm 2 m/s 758 mmHg 94%
    04:00 +13°C° 1,6 mm 2 m/s 758 mmHg 94%
    05:00 +13°C° 1,6 mm 2 m/s 757 mmHg 95%
    06:00 +12°C° 1,6 mm 3 m/s 757 mmHg 95%
    07:00 +12°C° 0,3 mm 3 m/s 757 mmHg 94%
    08:00 +12°C° 0,3 mm 3 m/s 758 mmHg 94%
    09:00 +13°C° 0,3 mm 4 m/s 758 mmHg 93%
    10:00 +13°C° 0,1 mm 3 m/s 758 mmHg 91%
    11:00 +14°C° 0,1 mm 3 m/s 759 mmHg 89%
    12:00 +16°C° 0,1 mm 3 m/s 759 mmHg 86%
    13:00 +16°C° 0 mm 3 m/s 759 mmHg 86%
    14:00 +16°C° 0 mm 3 m/s 760 mmHg 85%
    15:00 +16°C° 0 mm 2 m/s 760 mmHg 84%
    16:00 +16°C° 0 mm 2 m/s 760 mmHg 85%
    17:00 +16°C° 0 mm 2 m/s 760 mmHg 86%
    18:00 +16°C° 0 mm 1 m/s 761 mmHg 87%
    19:00 +15°C° 0 mm 1 m/s 761 mmHg 89%
    20:00 +14°C° 0 mm 1 m/s 761 mmHg 92%
    21:00 +14°C° 0 mm 1 m/s 762 mmHg 94%
    22:00 +13°C° 0 mm 1 m/s 762 mmHg 94%
    23:00 +12°C° 0 mm 0 m/s 762 mmHg 95%

    20 August, Luni

    Timp Temperatura Precipitaţii Vânt Presiune Umiditate
    00:00 +11°C° 0 mm 0 m/s 762 mmHg 95%
    01:00 +11°C° 0 mm 0 m/s 761 mmHg 95%
    02:00 +10°C° 0 mm 0 m/s 761 mmHg 95%
    03:00 +10°C° 0 mm 0 m/s 761 mmHg 95%
    04:00 +11°C° 0 mm 1 m/s 761 mmHg 95%
    05:00 +12°C° 0 mm 1 m/s 761 mmHg 95%
    06:00 +12°C° 0 mm 1 m/s 761 mmHg 95%
    07:00 +13°C° 0 mm 1 m/s 760 mmHg 91%
    08:00 +15°C° 0 mm 2 m/s 760 mmHg 86%
    09:00 +17°C° 0 mm 2 m/s 760 mmHg 82%
    10:00 +17°C° 0,4 mm 3 m/s 760 mmHg 83%
    11:00 +17°C° 0,4 mm 3 m/s 759 mmHg 84%
    12:00 +17°C° 0,4 mm 3 m/s 759 mmHg 85%
    13:00 +17°C° 0,5 mm 3 m/s 759 mmHg 88%
    14:00 +17°C° 0,5 mm 3 m/s 758 mmHg 91%
    15:00 +17°C° 0,5 mm 3 m/s 758 mmHg 95%
    16:00 +17°C° 0,1 mm 3 m/s 758 mmHg 95%
    17:00 +17°C° 0,1 mm 3 m/s 758 mmHg 95%
    18:00 +17°C° 0,1 mm 4 m/s 758 mmHg 95%
    19:00 +17°C° 0,1 mm 4 m/s 758 mmHg 95%
    20:00 +17°C° 0,1 mm 4 m/s 758 mmHg 96%
    21:00 +15°C° 0,1 mm 4 m/s 758 mmHg 96%
    22:00 +15°C° 0 mm 4 m/s 758 mmHg 96%
    23:00 +15°C° 0 mm 4 m/s 759 mmHg 96%

    21 August, Marţi

    Timp Temperatura Precipitaţii Vânt Presiune Umiditate
    00:00 +15°C° 0 mm 4 m/s 759 mmHg 96%
    01:00 +14°C° 0 mm 4 m/s 759 mmHg 96%
    02:00 +14°C° 0 mm 4 m/s 759 mmHg 96%
    03:00 +14°C° 0 mm 3 m/s 759 mmHg 96%
    04:00 +13°C° 0 mm 3 m/s 759 mmHg 96%
    05:00 +13°C° 0 mm 2 m/s 760 mmHg 96%
    06:00 +13°C° 0 mm 2 m/s 760 mmHg 96%
    07:00 +14°C° 0 mm 2 m/s 760 mmHg 91%
    08:00 +15°C° 0 mm 2 m/s 760 mmHg 87%
    09:00 +16°C° 0 mm 2 m/s 760 mmHg 82%
    10:00 +17°C° 0 mm 2 m/s 761 mmHg 80%
    11:00 +17°C° 0 mm 2 m/s 761 mmHg 77%
    12:00 +18°C° 0 mm 2 m/s 761 mmHg 75%
    13:00 +18°C° 0 mm 3 m/s 761 mmHg 75%
    14:00 +17°C° 0 mm 3 m/s 760 mmHg 76%
    15:00 +17°C° 0 mm 4 m/s 760 mmHg 76%
    16:00 +17°C° 0,1 mm 3 m/s 760 mmHg 80%
    17:00 +16°C° 0,1 mm 3 m/s 760 mmHg 83%
    18:00 +14°C° 0,1 mm 3 m/s 760 mmHg 87%
    19:00 +13°C° 0 mm 3 m/s 761 mmHg 90%
    20:00 +12°C° 0 mm 3 m/s 761 mmHg 92%
    21:00 +11°C° 0 mm 3 m/s 761 mmHg 95%
    22:00 +12°C° 0 mm 2 m/s 761 mmHg 95%
    23:00 +10°C° 0 mm 2 m/s 762 mmHg 96%

    22 August, Miercuri

    Timp Temperatura Precipitaţii Vânt Presiune Umiditate
    00:00 +10°C° 0 mm 2 m/s 762 mmHg 96%
    01:00 +9°C° 0 mm 2 m/s 762 mmHg 96%
    02:00 +10°C° 0 mm 1 m/s 762 mmHg 96%
    03:00 +10°C° 0 mm 1 m/s 762 mmHg 96%
    04:00 +10°C° 0 mm 1 m/s 763 mmHg 96%
    05:00 +10°C° 0 mm 1 m/s 763 mmHg 96%
    06:00 +10°C° 0 mm 1 m/s 763 mmHg 96%
    07:00 +12°C° 0 mm 1 m/s 763 mmHg 90%
    08:00 +13°C° 0 mm 1 m/s 763 mmHg 85%
    09:00 +15°C° 0 mm 1 m/s 764 mmHg 79%
    10:00 +16°C° 0 mm 1 m/s 764 mmHg 74%
    11:00 +18°C° 0 mm 1 m/s 764 mmHg 68%
    12:00 +18°C° 0 mm 2 m/s 764 mmHg 62%
    13:00 +18°C° 0 mm 2 m/s 764 mmHg 61%
    14:00 +18°C° 0 mm 2 m/s 763 mmHg 61%
    15:00 +19°C° 0 mm 3 m/s 763 mmHg 60%
    16:00 +18°C° 0 mm 2 m/s 763 mmHg 64%
    17:00 +17°C° 0 mm 2 m/s 763 mmHg 68%
    18:00 +17°C° 0 mm 2 m/s 763 mmHg 72%
    19:00 +15°C° 0 mm 2 m/s 763 mmHg 78%
    20:00 +13°C° 0 mm 2 m/s 763 mmHg 83%
    21:00 +10°C° 0 mm 2 m/s 763 mmHg 89%
    22:00 +10°C° 0 mm 2 m/s 763 mmHg 90%
    23:00 +9°C° 0 mm 2 m/s 763 mmHg 92%
    Arată mai mult